BCS25N ENVA-ENEV

Flight info

Callsign BCS25N
Flight time 1h 3m
Altitude 33000
Route NIGEX DCT PENNO
Aircraft A306/H-SDE3FGHIRWY/LB1

Departure

Time 2026-04-25 20:38
Airport Trondheim Airport, Værnes (ENVA)

Arrival

Time 2026-04-25 21:41
Airport Harstad/Narvik Airport (ENEV)
Time Latitude Longitude Altitude Speed Heading
2026-04-25 19:49 63.45959 10.91658 45 ft 0 kts 217°
2026-04-25 20:28 63.45959 10.91657 45 ft 0 kts 218°
2026-04-25 20:30 63.45951 10.91641 45 ft 4 kts 219°
2026-04-25 20:30 63.45924 10.91597 43 ft 6 kts 217°
2026-04-25 20:30 63.45885 10.91563 45 ft 7 kts 192°
2026-04-25 20:30 63.45822 10.91555 43 ft 12 kts 183°
2026-04-25 20:31 63.45722 10.91527 43 ft 16 kts 186°
2026-04-25 20:31 63.45638 10.91518 44 ft 8 kts 181°
2026-04-25 20:31 63.45598 10.91586 45 ft 8 kts 104°
2026-04-25 20:31 63.45596 10.91737 45 ft 11 kts 89°
2026-04-25 20:32 63.45596 10.91942 46 ft 16 kts 90°
2026-04-25 20:32 63.45596 10.92116 47 ft 0 kts 90°
2026-04-25 20:32 63.45596 10.92123 47 ft 0 kts 90°
2026-04-25 20:33 63.45596 10.92136 47 ft 5 kts 90°
2026-04-25 20:33 63.45596 10.92245 47 ft 14 kts 90°
2026-04-25 20:34 63.45595 10.92549 48 ft 16 kts 90°
2026-04-25 20:34 63.45594 10.92793 49 ft 16 kts 89°
2026-04-25 20:34 63.45595 10.93040 50 ft 16 kts 90°
2026-04-25 20:34 63.45594 10.93287 53 ft 16 kts 90°
2026-04-25 20:35 63.45593 10.93454 55 ft 16 kts 90°
2026-04-25 20:35 63.45594 10.93781 59 ft 16 kts 84°
2026-04-25 20:35 63.45655 10.93971 58 ft 14 kts 41°
2026-04-25 20:35 63.45723 10.94113 60 ft 11 kts 44°
2026-04-25 20:36 63.45755 10.94134 61 ft 1 kts 319°
2026-04-25 20:36 63.45755 10.94116 58 ft 2 kts 274°
2026-04-25 20:36 63.45755 10.94113 58 ft 0 kts 271°
2026-04-25 20:37 63.45756 10.94065 61 ft 14 kts 271°
2026-04-25 20:37 63.45758 10.93319 58 ft 86 kts 270°
2026-04-25 20:37 63.45757 10.91419 43 ft 157 kts 270°
2026-04-25 20:38 63.45755 10.88679 706 ft 178 kts 271°
2026-04-25 20:38 63.45734 10.85932 1979 ft 179 kts 274°
2026-04-25 20:38 63.45682 10.83067 2655 ft 191 kts 275°
2026-04-25 20:38 63.45694 10.79909 2985 ft 216 kts 277°
2026-04-25 20:39 63.45742 10.76371 3415 ft 236 kts 276°
2026-04-25 20:39 63.45767 10.72672 4327 ft 239 kts 276°
2026-04-25 20:39 63.45778 10.68916 5216 ft 244 kts 275°
2026-04-25 20:39 63.45781 10.67627 5471 ft 248 kts 275°
2026-04-25 20:40 63.45823 10.61076 5981 ft 249 kts 280°
2026-04-25 20:40 63.46247 10.57411 5998 ft 241 kts 299°
2026-04-25 20:40 63.47227 10.54446 5994 ft 237 kts 319°
2026-04-25 20:40 63.48630 10.52553 5998 ft 237 kts 339°
2026-04-25 20:41 63.50258 10.51910 6012 ft 250 kts 354°
2026-04-25 20:41 63.52048 10.51861 6349 ft 263 kts 357°
2026-04-25 20:41 63.53891 10.52248 7196 ft 269 kts
2026-04-25 20:41 63.55664 10.53773 8085 ft 277 kts 21°
2026-04-25 20:42 63.57386 10.55829 8965 ft 282 kts 24°
2026-04-25 20:42 63.59117 10.57975 9826 ft 286 kts 24°
2026-04-25 20:42 63.60870 10.60140 10605 ft 288 kts 24°
2026-04-25 20:42 63.62651 10.62327 11227 ft 297 kts 24°
2026-04-25 20:43 63.64497 10.64578 11539 ft 314 kts 24°
2026-04-25 20:43 63.66467 10.66982 11858 ft 329 kts 24°
2026-04-25 20:43 63.68525 10.69497 12146 ft 344 kts 24°
2026-04-25 20:43 63.70685 10.72144 12545 ft 353 kts 24°
2026-04-25 20:44 63.72819 10.74772 13178 ft 355 kts 24°
2026-04-25 20:44 63.74994 10.77451 13836 ft 357 kts 24°
2026-04-25 20:44 63.77182 10.80150 14464 ft 358 kts 24°
2026-04-25 20:44 63.79370 10.82853 15136 ft 357 kts 23°
2026-04-25 20:45 63.81548 10.85549 15836 ft 357 kts 23°
2026-04-25 20:45 63.83721 10.88240 16483 ft 356 kts 22°
2026-04-25 20:45 63.85898 10.90942 17154 ft 357 kts 22°
2026-04-25 20:45 63.88075 10.93645 17796 ft 357 kts 22°
2026-04-25 20:46 63.90254 10.96355 18411 ft 357 kts 21°
2026-04-25 20:46 63.92438 10.99078 18893 ft 358 kts 21°
2026-04-25 20:46 63.94595 11.01768 19366 ft 360 kts 21°
2026-04-25 20:46 63.96835 11.04566 19763 ft 363 kts 21°
2026-04-25 20:47 63.99015 11.07300 20160 ft 364 kts 21°
2026-04-25 20:47 64.01235 11.10093 20598 ft 364 kts 21°
2026-04-25 20:47 64.03447 11.12873 21102 ft 363 kts 20°
2026-04-25 20:47 64.05661 11.15664 21592 ft 363 kts 20°
2026-04-25 20:48 64.07876 11.18455 21987 ft 364 kts 20°
2026-04-25 20:48 64.10097 11.21261 22408 ft 364 kts 19°
2026-04-25 20:48 64.12313 11.24072 22817 ft 365 kts 19°
2026-04-25 20:48 64.14539 11.26907 23215 ft 367 kts 20°
2026-04-25 20:49 64.16720 11.30065 23624 ft 375 kts 24°
2026-04-25 20:49 64.18759 11.33933 23912 ft 388 kts 31°
2026-04-25 20:49 64.20596 11.38632 24163 ft 403 kts 39°
2026-04-25 20:49 64.22265 11.43872 24408 ft 409 kts 41°
2026-04-25 20:50 64.23880 11.49197 24658 ft 412 kts 42°
2026-04-25 20:50 64.25523 11.54635 24908 ft 414 kts 42°
2026-04-25 20:50 64.27172 11.60083 25185 ft 416 kts 42°
2026-04-25 20:50 64.28830 11.65553 25429 ft 417 kts 41°
2026-04-25 20:51 64.30488 11.71052 25664 ft 419 kts 42°
2026-04-25 20:51 64.31612 11.74793 25813 ft 420 kts 42°
2026-04-25 20:51 64.33259 11.80276 26035 ft 422 kts 42°
2026-04-25 20:51 64.34929 11.85848 26310 ft 422 kts 42°
2026-04-25 20:52 64.36578 11.91377 26962 ft 413 kts 41°
2026-04-25 20:52 64.37733 11.94894 27342 ft 400 kts 36°
2026-04-25 20:52 64.40349 12.00455 27925 ft 374 kts 23°
2026-04-25 20:52 64.42572 12.03370 28204 ft 364 kts 15°
2026-04-25 20:53 64.44880 12.05740 28473 ft 363 kts 13°
2026-04-25 20:53 64.47204 12.08033 28807 ft 363 kts 13°
2026-04-25 20:53 64.49529 12.10329 29291 ft 361 kts 14°
2026-04-25 20:53 64.51832 12.12622 29694 ft 360 kts 14°
2026-04-25 20:54 64.54138 12.14922 29959 ft 362 kts 14°
2026-04-25 20:54 64.56455 12.17245 30208 ft 362 kts 14°
2026-04-25 20:54 64.58775 12.19581 30363 ft 363 kts 14°
2026-04-25 20:54 64.61100 12.21925 30530 ft 365 kts 14°
2026-04-25 20:55 64.63433 12.24280 30731 ft 366 kts 14°
2026-04-25 20:55 64.65774 12.26649 30944 ft 367 kts 14°
2026-04-25 20:55 64.68107 12.29016 31267 ft 365 kts 14°
2026-04-25 20:55 64.70431 12.31380 31535 ft 364 kts 14°
2026-04-25 20:56 64.72724 12.33714 31770 ft 365 kts 14°
2026-04-25 20:56 64.75082 12.36115 31994 ft 365 kts 15°
2026-04-25 20:56 64.77387 12.38470 32236 ft 366 kts 15°
2026-04-25 20:56 64.79731 12.40867 32414 ft 369 kts 15°
2026-04-25 20:57 64.82102 12.43294 32534 ft 373 kts 15°
2026-04-25 20:57 64.84480 12.45737 32808 ft 374 kts 16°
2026-04-25 20:57 64.86865 12.48195 32944 ft 374 kts 16°
2026-04-25 20:57 64.89264 12.50668 32978 ft 378 kts 16°
2026-04-25 20:58 64.94126 12.55695 32956 ft 384 kts 16°
2026-04-25 20:58 64.99025 12.60794 32952 ft 384 kts 16°
2026-04-25 20:59 65.03923 12.65904 32967 ft 384 kts 16°
2026-04-25 20:59 65.08818 12.71028 32975 ft 385 kts 17°
2026-04-25 21:00 65.12909 12.75328 32960 ft 388 kts 17°
2026-04-25 21:01 65.21171 12.84057 32963 ft 389 kts 17°
2026-04-25 21:01 65.26116 12.89311 32951 ft 389 kts 17°
2026-04-25 21:02 65.31031 12.94555 32954 ft 389 kts 17°
2026-04-25 21:02 65.35974 12.99848 32949 ft 389 kts 17°
2026-04-25 21:03 65.40924 13.05175 32954 ft 392 kts 17°
2026-04-25 21:03 65.45912 13.10555 32948 ft 393 kts 17°
2026-04-25 21:04 65.50903 13.15970 32939 ft 393 kts 17°
2026-04-25 21:04 65.55894 13.21411 32939 ft 393 kts 17°
2026-04-25 21:05 65.60878 13.26863 32936 ft 393 kts 17°
2026-04-25 21:05 65.65865 13.32337 32932 ft 393 kts 17°
2026-04-25 21:06 65.70861 13.37846 32935 ft 396 kts 18°
2026-04-25 21:06 65.75892 13.43422 32937 ft 398 kts 18°
2026-04-25 21:07 65.80921 13.49018 32938 ft 398 kts 18°
2026-04-25 21:07 65.85927 13.54610 32921 ft 398 kts 18°
2026-04-25 21:08 65.90971 13.60272 32928 ft 398 kts 18°
2026-04-25 21:08 65.96005 13.65948 32919 ft 398 kts 18°
2026-04-25 21:09 66.03585 13.74532 32903 ft 402 kts 18°
2026-04-25 21:09 66.08666 13.80322 32901 ft 402 kts 18°
2026-04-25 21:10 66.13709 13.86096 32899 ft 402 kts 18°
2026-04-25 21:10 66.18787 13.91934 32899 ft 402 kts 18°
2026-04-25 21:11 66.23860 13.97792 32894 ft 402 kts 18°
2026-04-25 21:11 66.28936 14.03681 32888 ft 404 kts 19°
2026-04-25 21:12 66.34059 14.09641 32926 ft 409 kts 19°
2026-04-25 21:12 66.38377 14.14689 32882 ft 414 kts 19°
2026-04-25 21:13 66.44476 14.21866 32885 ft 415 kts 20°
2026-04-25 21:13 66.49705 14.28047 32887 ft 415 kts 20°
2026-04-25 21:14 66.54891 14.34191 32881 ft 415 kts 20°
2026-04-25 21:14 66.60113 14.40423 32886 ft 418 kts 20°
2026-04-25 21:15 66.65376 14.46732 32878 ft 419 kts 20°
2026-04-25 21:15 66.70650 14.53081 32877 ft 419 kts 20°
2026-04-25 21:16 66.75908 14.59459 32877 ft 419 kts 20°
2026-04-25 21:16 66.81169 14.65843 32873 ft 419 kts 20°
2026-04-25 21:17 66.86418 14.72246 32895 ft 419 kts 20°
2026-04-25 21:17 66.91640 14.78651 32868 ft 420 kts 20°
2026-04-25 21:18 66.96899 14.85134 32707 ft 418 kts 20°
2026-04-25 21:18 66.99515 14.88375 32011 ft 417 kts 20°
2026-04-25 21:18 67.02127 14.91616 31203 ft 416 kts 20°
2026-04-25 21:19 67.04724 14.94847 30448 ft 414 kts 19°
2026-04-25 21:19 67.07312 14.98073 29634 ft 412 kts 19°
2026-04-25 21:19 67.09889 15.01292 28669 ft 411 kts 20°
2026-04-25 21:19 67.12444 15.04500 28027 ft 404 kts 20°
2026-04-25 21:20 67.14935 15.07635 27512 ft 394 kts 20°
2026-04-25 21:20 67.16555 15.09674 27174 ft 388 kts 20°
2026-04-25 21:20 67.19758 15.13712 26503 ft 378 kts 20°
2026-04-25 21:20 67.22099 15.16667 25993 ft 371 kts 20°
2026-04-25 21:21 67.24372 15.19542 25524 ft 365 kts 20°
2026-04-25 21:21 67.26626 15.22402 25067 ft 358 kts 20°
2026-04-25 21:21 67.28846 15.25224 24622 ft 353 kts 20°
2026-04-25 21:21 67.31038 15.28015 24174 ft 348 kts 20°
2026-04-25 21:22 67.33215 15.30789 23556 ft 349 kts 20°
2026-04-25 21:22 67.35356 15.33805 22907 ft 355 kts 31°
2026-04-25 21:22 67.37101 15.38498 22358 ft 366 kts 41°
2026-04-25 21:22 67.39021 15.42669 21820 ft 355 kts 22°
2026-04-25 21:23 67.41323 15.44723 21407 ft 347 kts 10°
2026-04-25 21:23 67.43641 15.46326 21028 ft 344 kts 12°
2026-04-25 21:23 67.45908 15.48309 20617 ft 343 kts 16°
2026-04-25 21:23 67.48133 15.50639 20212 ft 345 kts 19°
2026-04-25 21:24 67.50300 15.53148 19824 ft 345 kts 20°
2026-04-25 21:24 67.52478 15.55815 19380 ft 344 kts 21°
2026-04-25 21:24 67.54630 15.58529 18932 ft 341 kts 21°
2026-04-25 21:24 67.56746 15.61246 18474 ft 336 kts 22°
2026-04-25 21:25 67.58829 15.63950 17984 ft 332 kts 21°
2026-04-25 21:25 67.60891 15.66617 17408 ft 329 kts 22°
2026-04-25 21:25 67.62910 15.69262 16824 ft 327 kts 22°
2026-04-25 21:25 67.64967 15.71972 16218 ft 326 kts 22°
2026-04-25 21:26 67.66982 15.74632 15659 ft 323 kts 22°
2026-04-25 21:26 67.68964 15.77251 15139 ft 323 kts 22°
2026-04-25 21:26 67.70969 15.79902 14649 ft 322 kts 22°
2026-04-25 21:26 67.72969 15.82550 14190 ft 322 kts 22°
2026-04-25 21:27 67.74961 15.85200 13703 ft 321 kts 22°
2026-04-25 21:27 67.76953 15.87854 13215 ft 319 kts 22°
2026-04-25 21:27 67.78921 15.90478 12725 ft 314 kts 22°
2026-04-25 21:27 67.80846 15.93058 12371 ft 305 kts 22°
2026-04-25 21:28 67.82716 15.95568 12033 ft 297 kts 22°
2026-04-25 21:28 67.84532 15.98006 11746 ft 288 kts 22°
2026-04-25 21:28 67.86298 16.00379 11490 ft 280 kts 22°
2026-04-25 21:28 67.88010 16.02683 11247 ft 272 kts 22°
2026-04-25 21:29 67.89681 16.04934 11002 ft 267 kts 22°
2026-04-25 21:29 67.91320 16.07143 10747 ft 263 kts 22°
2026-04-25 21:29 67.92940 16.09316 10471 ft 257 kts 21°
2026-04-25 21:29 67.94529 16.11244 10256 ft 251 kts 19°
2026-04-25 21:30 67.96148 16.13101 9973 ft 248 kts 18°
2026-04-25 21:30 67.97730 16.14898 9689 ft 246 kts 18°
2026-04-25 21:30 67.99282 16.16659 9342 ft 245 kts 18°
2026-04-25 21:30 68.00342 16.17862 9110 ft 245 kts 18°
2026-04-25 21:31 68.02417 16.20216 8627 ft 244 kts 18°
2026-04-25 21:31 68.03980 16.21992 8265 ft 244 kts 18°
2026-04-25 21:31 68.05539 16.23770 7922 ft 243 kts 18°
2026-04-25 21:31 68.07099 16.25558 7511 ft 245 kts 19°
2026-04-25 21:32 68.08667 16.27349 7184 ft 245 kts 19°
2026-04-25 21:32 68.10209 16.29116 7026 ft 237 kts 19°
2026-04-25 21:32 68.11683 16.30816 7015 ft 224 kts 19°
2026-04-25 21:32 68.13090 16.32434 7013 ft 217 kts 19°
2026-04-25 21:33 68.14482 16.34013 7022 ft 217 kts 19°
2026-04-25 21:33 68.15853 16.35589 7023 ft 217 kts 19°
2026-04-25 21:33 68.17237 16.37213 7022 ft 217 kts 19°
2026-04-25 21:33 68.18630 16.38752 6978 ft 216 kts 18°
2026-04-25 21:34 68.20034 16.40260 6701 ft 217 kts 18°
2026-04-25 21:34 68.21429 16.41758 6465 ft 214 kts 18°
2026-04-25 21:34 68.22785 16.43220 6190 ft 207 kts 18°
2026-04-25 21:34 68.24111 16.44648 5811 ft 203 kts 18°
2026-04-25 21:35 68.25405 16.46041 5401 ft 197 kts 18°
2026-04-25 21:35 68.26652 16.47526 5075 ft 194 kts 18°
2026-04-25 21:35 68.27861 16.48822 4988 ft 179 kts 17°
2026-04-25 21:35 68.28949 16.50158 4977 ft 164 kts 21°
2026-04-25 21:36 68.29954 16.51459 4938 ft 158 kts 20°
2026-04-25 21:36 68.30952 16.52658 4676 ft 157 kts 18°
2026-04-25 21:36 68.31949 16.53803 4412 ft 154 kts 17°
2026-04-25 21:36 68.32607 16.54511 4223 ft 153 kts 16°
2026-04-25 21:37 68.33601 16.55539 3961 ft 153 kts 16°
2026-04-25 21:37 68.34256 16.56214 3797 ft 150 kts 16°
2026-04-25 21:37 68.35550 16.57561 3551 ft 149 kts 16°
2026-04-25 21:37 68.36822 16.58874 3322 ft 147 kts 16°
2026-04-25 21:38 68.37473 16.59547 3200 ft 149 kts 16°
2026-04-25 21:38 68.38442 16.60558 2963 ft 150 kts 16°
2026-04-25 21:38 68.39416 16.61571 2720 ft 150 kts 16°
2026-04-25 21:38 68.40391 16.62559 2471 ft 147 kts 17°
2026-04-25 21:39 68.41328 16.63524 2204 ft 142 kts 18°
2026-04-25 21:39 68.42247 16.64485 1954 ft 142 kts 18°
2026-04-25 21:39 68.43170 16.65462 1614 ft 143 kts 18°
2026-04-25 21:39 68.44095 16.66364 1250 ft 146 kts 14°
2026-04-25 21:40 68.45057 16.67143 961 ft 145 kts 15°
2026-04-25 21:40 68.46027 16.67965 612 ft 144 kts
2026-04-25 21:40 68.47024 16.68051 320 ft 139 kts 357°
2026-04-25 21:40 68.47971 16.67945 132 ft 137 kts 356°
2026-04-25 21:41 68.48852 16.67840 101 ft 108 kts 359°
2026-04-25 21:41 68.49432 16.67780 98 ft 59 kts 358°
2026-04-25 21:41 68.49741 16.67777 97 ft 40 kts 357°
2026-04-25 21:41 68.50022 16.67730 93 ft 40 kts 358°
2026-04-25 21:42 68.50247 16.67703 99 ft 13 kts 357°
2026-04-25 21:42 68.50322 16.67692 99 ft 10 kts 360°
2026-04-25 21:42 68.50371 16.67759 101 ft 8 kts 50°
2026-04-25 21:42 68.50375 16.67941 93 ft 12 kts 111°
2026-04-25 21:43 68.50303 16.68052 94 ft 13 kts 171°
2026-04-25 21:43 68.50205 16.68064 87 ft 15 kts 178°
2026-04-25 21:43 68.50095 16.68079 86 ft 17 kts 177°
2026-04-25 21:43 68.49977 16.68096 84 ft 17 kts 177°
2026-04-25 21:44 68.49862 16.68109 80 ft 16 kts 178°
2026-04-25 21:44 68.49756 16.68125 74 ft 15 kts 177°
2026-04-25 21:44 68.49574 16.68145 81 ft 11 kts 178°
2026-04-25 21:45 68.49512 16.68152 87 ft 8 kts 177°
2026-04-25 21:45 68.49471 16.68156 89 ft 10 kts 177°
2026-04-25 21:45 68.49340 16.68171 93 ft 14 kts 178°
2026-04-25 21:45 68.49253 16.68179 95 ft 11 kts 178°
2026-04-25 21:46 68.49188 16.68184 96 ft 9 kts 179°
2026-04-25 21:46 68.49138 16.68187 97 ft 7 kts 178°
2026-04-25 21:46 68.49090 16.68193 96 ft 6 kts 177°
2026-04-25 21:46 68.49057 16.68197 95 ft 4 kts 177°
2026-04-25 21:47 68.49019 16.68204 95 ft 1 kts 175°
2026-04-25 21:47 68.49018 16.68205 94 ft 0 kts 173°
2026-04-25 21:47 68.49015 16.68210 97 ft 1 kts 155°
2026-04-25 21:47 68.49011 16.68243 95 ft 2 kts 102°
2026-04-25 21:48 68.49010 16.68263 98 ft 0 kts 101°
2026-04-25 21:48 68.49008 16.68284 96 ft 3 kts 101°
2026-04-25 21:48 68.49007 16.68354 100 ft 3 kts 87°
2026-04-25 21:48 68.49007 16.68362 99 ft 0 kts 87°